{"data":{"norad_id":62752,"intl_designator":"2025-014T","name":"STARLINK-32756","alt_names":[],"object_type":"PAYLOAD","status":"ACTIVE","operator":null,"country":"US","launch_date":"2025-01-21","launch_site_code":"AFETR","launch_vehicle":null,"mission":null,"orbit_class":"UNKNOWN","rcs_meters":null,"size_class":null,"mass_kg":null,"dimensions":null,"purposes":["comms"],"wikipedia_slug":null,"has_3d_model":false,"image_url":null,"decayed_at":null,"tle_current":{"epoch":"2026-05-25T04:44:40.371936Z","epoch_age_seconds":54048,"freshness":"FRESH","line1":"1 62752U 25014T   26145.19768949  .00013481  00000+0  49832-3 0  9990","line2":"2 62752  42.9999  82.7128 0001274 260.2450  99.8258 15.27593522 74954","mean_motion":15.27593522,"eccentricity":0.0001274,"inclination_deg":42.9999,"raan_deg":82.7128,"arg_perigee_deg":260.245,"mean_anomaly_deg":99.8258,"bstar":0.00049832,"rev_number":7495,"period_min":94.265914280304,"perigee_km":482.13449665553,"apogee_km":483.8827165561,"semimajor_km":6861.1456066058,"source":"CELESTRAK","updated_at":"2026-05-25T13:38:19.741819Z"}}}